Hanford, WA
on Monday, November 12, 2012

Monday
Previous Day Next Day
Daily Summary
 ActualAverage (KMWH)Record (KMWH)
Temperature
Mean Temperature °F 39°F  
Max Temperature 40°F 48°F 68°F (1999)
Min Temperature 31°F 30°F 10°F (1985)
Degree Days
Heating Degree Days 30 26  
Month to date heating degree days 288  
Since 1 July heating degree days 925  
Cooling Degree Days 0 0  
Month to date cooling degree days 0  
Year to date cooling degree days 615  
Moisture
Dew Point 34°F   
Average Humidity 93    
Maximum Humidity 100    
Minimum Humidity 83    
Precipitation
Precipitation 0.08 in 0.04 in 0.33 in (2012)
Month to date precipitation 0.46  
Year to date precipitation 6.93  
Wind
Wind Speed 6 mph   
Max Wind Speed 13 mph   
Max Gust Speed mph   
Visibility 6 miles   
Events Fog , Rain , Snow   

Key: T is trace of precipitation, MM is missing value
Source: NWS Daily Summary
Time(PST)TemperatureDew PointHumidity Pressure Visibility Wind DirectionWind SpeedGust SpeedPrecipitationEvents Conditions
12:50 AM 32.0°F 32.0°F 100% 30.28 in 0.8 miles NNW 3.5 mph - 0.07 in Rain , Snow Light Snow
1:50 AM 31.8°F 31.8°F 100% 30.27 in 1.5 miles North 3.5 mph - 0.01 in   Overcast
2:50 AM 32.2°F 32.2°F 100% 30.26 in 1.5 miles NNW 4.6 mph - 0.00 in   Overcast
3:50 AM 32.2°F 32.2°F 100% 30.24 in 0.2 miles NNW 4.6 mph - 0.01 in Fog , Rain Light Rain
4:50 AM 32.2°F 32.2°F 100% 30.24 in 0.2 miles NNW 4.6 mph - 0.01 in Fog , Rain Light Rain
5:50 AM 32.2°F 32.2°F 100% 30.23 in 1.5 miles NNW 4.6 mph - 0.01 in Rain Light Rain
6:50 AM 32.7°F 32.7°F 100% 30.23 in 4.0 miles NNW 5.8 mph - 0.01 in Rain Light Rain
7:50 AM 32.7°F 32.7°F 100% 30.23 in 3.0 miles NW 4.6 mph - 0.03 in Rain Light Rain
8:50 AM 33.8°F 33.8°F 100% 30.23 in 3.0 miles NW 8.1 mph - N/A Rain Light Rain
9:50 AM 33.8°F 33.6°F 99% 30.24 in 3.0 miles NW 8.1 mph - N/A   Overcast
11:50 AM 38.5°F 35.1°F 87% 30.22 in 4.0 miles NW 12.7 mph - N/A   Overcast
12:50 PM 37.8°F 36.5°F 95% 30.22 in 7.0 miles NW 11.5 mph - N/A   Overcast
1:50 PM 39.6°F 35.6°F 86% 30.22 in 10.0 miles NW 10.4 mph - N/A   Overcast
2:50 PM 40.3°F 36.3°F 86% 30.22 in 12.0 miles WNW 9.2 mph - N/A   Overcast
3:50 PM 39.7°F 35.1°F 83% 30.22 in 12.0 miles NW 6.9 mph - N/A   Overcast
4:50 PM 39.0°F 34.9°F 85% 30.22 in 12.0 miles NW 6.9 mph - N/A   Overcast
5:50 PM 38.8°F 34.2°F 83% 30.22 in 12.0 miles NW 5.8 mph - N/A   Overcast
6:50 PM 38.8°F 34.9°F 86% 30.24 in 12.0 miles NW 6.9 mph - N/A   Overcast
10:50 PM 38.7°F 35.2°F 87% 30.30 in 15.0 miles WNW 6.9 mph - N/A   Overcast
11:50 PM 38.5°F 34.9°F 87% 30.30 in 15.0 miles NW 4.6 mph - N/A   Overcast
Moon Phase
Nov. 12 Nov. 13 Nov. 20 Nov. 28 Dec. 06
Sunrise:06:57 AM (PST) Moon Rise:05:25 AM (PST)11/12
Sunset:04:27 PM (PST) Moon Set:03:37 PM (PST)11/12

Copyright © 2014 The Weather Underground, Inc.